Year,Month,Day,Hour,Minute,Value (Times are PST for temperature in C)
2012,11,30,00,02,9.60
2012,11,30,00,03,9.60
2012,11,30,00,04,9.60
2012,11,30,00,06,9.60
2012,11,30,00,07,9.60
2012,11,30,00,08,9.60
2012,11,30,00,09,9.60
2012,11,30,00,11,9.60
2012,11,30,00,12,9.60
2012,11,30,00,13,9.60
2012,11,30,00,14,9.60
2012,11,30,00,16,9.70
2012,11,30,00,17,9.70
2012,11,30,00,18,9.70
2012,11,30,00,19,9.60
2012,11,30,00,20,9.60
2012,11,30,00,21,9.60
2012,11,30,00,22,9.60
2012,11,30,00,23,9.60
2012,11,30,00,24,9.60
2012,11,30,00,26,9.60
2012,11,30,00,27,9.60
2012,11,30,00,28,9.60
2012,11,30,00,29,9.60
2012,11,30,00,30,9.60
2012,11,30,00,31,9.60
2012,11,30,00,33,9.60
2012,11,30,00,34,9.60
2012,11,30,00,36,9.60
2012,11,30,00,37,9.50
2012,11,30,00,38,9.50
2012,11,30,00,39,9.50
2012,11,30,00,40,9.50
2012,11,30,00,41,9.50
2012,11,30,00,42,9.40
2012,11,30,00,43,9.40
2012,11,30,00,44,9.40
2012,11,30,00,46,9.40
2012,11,30,00,47,9.40
2012,11,30,00,48,9.40
2012,11,30,00,49,9.40
2012,11,30,00,50,9.40
2012,11,30,00,51,9.30
2012,11,30,00,52,9.30
2012,11,30,00,53,9.30
2012,11,30,00,54,9.30
2012,11,30,00,55,9.30
2012,11,30,00,56,9.30
2012,11,30,00,57,9.30
2012,11,30,00,58,9.30
2012,11,30,00,59,9.30
2012,11,30,01,00,9.30
2012,11,30,01,01,9.30
2012,11,30,01,02,9.30
2012,11,30,01,03,9.30
2012,11,30,01,04,9.30
2012,11,30,01,05,9.40
2012,11,30,01,06,9.30
2012,11,30,01,07,9.30
2012,11,30,01,08,9.30
2012,11,30,01,09,9.30
2012,11,30,01,10,9.30
2012,11,30,01,11,9.30
2012,11,30,01,12,9.30
2012,11,30,01,13,9.30
2012,11,30,01,14,9.30
2012,11,30,01,15,9.30
2012,11,30,01,16,9.30
2012,11,30,01,17,9.30
2012,11,30,01,18,9.30
2012,11,30,01,19,9.30
2012,11,30,01,20,9.30
2012,11,30,01,21,9.20
2012,11,30,01,22,9.20
2012,11,30,01,23,9.20
2012,11,30,01,24,9.20
2012,11,30,01,26,9.20
2012,11,30,01,27,9.20
2012,11,30,01,28,9.20
2012,11,30,01,29,9.20
2012,11,30,01,30,9.20
2012,11,30,01,32,9.20
2012,11,30,01,33,9.20
2012,11,30,01,34,9.20
2012,11,30,01,35,9.10
2012,11,30,01,36,9.10
2012,11,30,01,37,9.10
2012,11,30,01,39,9.10
2012,11,30,01,40,9.10
2012,11,30,01,41,9.20
2012,11,30,01,42,9.20
2012,11,30,01,43,9.20
2012,11,30,01,44,9.20
2012,11,30,01,45,9.20
2012,11,30,01,46,9.20
2012,11,30,01,47,9.20
2012,11,30,01,49,9.20
2012,11,30,01,50,9.20
2012,11,30,01,51,9.20
2012,11,30,01,52,9.20
2012,11,30,01,53,9.30
2012,11,30,01,54,9.30
2012,11,30,01,55,9.30
2012,11,30,01,56,9.30
2012,11,30,01,57,9.30
2012,11,30,01,58,9.30
2012,11,30,01,59,9.30
2012,11,30,02,00,9.30
2012,11,30,02,02,9.30
2012,11,30,02,03,9.30
2012,11,30,02,04,9.40
2012,11,30,02,05,9.40
2012,11,30,02,06,9.40
2012,11,30,02,07,9.40
2012,11,30,02,08,9.40
2012,11,30,02,09,9.40
2012,11,30,02,10,9.50
2012,11,30,02,11,9.50
2012,11,30,02,12,9.60
2012,11,30,02,13,9.60
2012,11,30,02,14,9.60
2012,11,30,02,15,9.60
2012,11,30,02,16,9.70
2012,11,30,02,17,9.70
2012,11,30,02,19,9.70
2012,11,30,02,20,9.70
2012,11,30,02,21,9.70
2012,11,30,02,22,9.70
2012,11,30,02,24,9.70
2012,11,30,02,26,9.70
2012,11,30,02,27,9.70
2012,11,30,02,28,9.70
2012,11,30,02,29,9.70
2012,11,30,02,30,9.70
2012,11,30,02,31,9.70
2012,11,30,02,32,9.70
2012,11,30,02,34,9.70
2012,11,30,02,35,9.70
2012,11,30,02,37,9.70
2012,11,30,02,38,9.60
2012,11,30,02,39,9.60
2012,11,30,02,41,9.60
2012,11,30,02,42,9.60
2012,11,30,02,43,9.60
2012,11,30,02,44,9.60
2012,11,30,02,45,9.60
2012,11,30,02,47,9.60
2012,11,30,02,48,9.60
2012,11,30,02,49,9.60
2012,11,30,02,50,9.60
2012,11,30,02,51,9.60
2012,11,30,02,52,9.60
2012,11,30,02,53,9.60
2012,11,30,02,54,9.50
2012,11,30,02,55,9.50
2012,11,30,02,56,9.40
2012,11,30,02,58,9.40
2012,11,30,02,59,9.40
2012,11,30,03,00,9.40
2012,11,30,03,01,9.30
2012,11,30,03,03,9.30
2012,11,30,03,04,9.30
2012,11,30,03,05,9.30
2012,11,30,03,06,9.30
2012,11,30,03,07,9.30
2012,11,30,03,09,9.30
2012,11,30,03,10,9.30
2012,11,30,03,11,9.30
2012,11,30,03,12,9.30
2012,11,30,03,14,9.30
2012,11,30,03,16,9.20
2012,11,30,03,17,9.20
2012,11,30,03,20,9.20
2012,11,30,03,21,9.20
2012,11,30,03,22,9.20
2012,11,30,03,23,9.20
2012,11,30,03,25,9.20
2012,11,30,03,26,9.20
2012,11,30,03,27,9.20
2012,11,30,03,30,9.20
2012,11,30,03,31,9.20
2012,11,30,03,32,9.20
2012,11,30,03,33,9.20
2012,11,30,03,34,9.20
2012,11,30,03,36,9.20
2012,11,30,03,38,9.20
2012,11,30,03,39,9.20
2012,11,30,03,41,9.20
2012,11,30,03,42,9.20
2012,11,30,03,43,9.20
2012,11,30,03,44,9.20
2012,11,30,03,46,9.20
2012,11,30,03,47,9.20
2012,11,30,03,48,9.20
2012,11,30,03,49,9.20
2012,11,30,03,51,9.20
2012,11,30,03,52,9.20
2012,11,30,03,53,9.20
2012,11,30,03,54,9.20
2012,11,30,03,56,9.20
2012,11,30,03,58,9.20
2012,11,30,03,59,9.20
2012,11,30,04,01,9.20
2012,11,30,04,02,9.20
2012,11,30,04,03,9.20
2012,11,30,04,04,9.20
2012,11,30,04,05,9.20
2012,11,30,04,06,9.20
2012,11,30,04,09,9.20
2012,11,30,04,11,9.20
2012,11,30,04,12,9.20
2012,11,30,04,14,9.10
2012,11,30,04,16,9.10
2012,11,30,04,17,9.10
2012,11,30,04,18,9.10
2012,11,30,04,19,9.10
2012,11,30,04,21,9.10
2012,11,30,04,23,9.10
2012,11,30,04,24,9.10
2012,11,30,04,25,9.10
2012,11,30,04,27,9.10
2012,11,30,04,29,9.10
2012,11,30,04,30,9.10
2012,11,30,04,31,9.10
2012,11,30,04,32,9.10
2012,11,30,04,33,9.10
2012,11,30,04,34,9.00
2012,11,30,04,36,9.10
2012,11,30,04,37,9.00
2012,11,30,04,38,9.00
2012,11,30,04,39,9.10
2012,11,30,04,41,9.00
2012,11,30,04,42,9.00
2012,11,30,04,43,9.00
2012,11,30,04,44,9.00
2012,11,30,04,46,9.00
2012,11,30,04,47,9.00
2012,11,30,04,48,9.00
2012,11,30,04,49,9.10
2012,11,30,04,50,9.00
2012,11,30,04,51,9.00
2012,11,30,04,52,9.10
2012,11,30,04,54,9.10
2012,11,30,04,55,9.10
2012,11,30,04,56,9.10
2012,11,30,04,57,9.10
2012,11,30,04,59,9.10
2012,11,30,05,00,9.10
2012,11,30,05,01,9.10
2012,11,30,05,02,9.10
2012,11,30,05,04,9.20
2012,11,30,05,05,9.20
2012,11,30,05,06,9.20
2012,11,30,05,07,9.20
2012,11,30,05,09,9.20
2012,11,30,05,10,9.20
2012,11,30,05,11,9.20
2012,11,30,05,12,9.20
2012,11,30,05,14,9.20
2012,11,30,05,15,9.30
2012,11,30,05,16,9.30
2012,11,30,05,18,9.30
2012,11,30,05,19,9.30
2012,11,30,05,20,9.30
2012,11,30,05,21,9.30
2012,11,30,05,22,9.30
2012,11,30,05,24,9.30
2012,11,30,05,25,9.30
2012,11,30,05,26,9.30
2012,11,30,05,27,9.30
2012,11,30,05,28,9.30
2012,11,30,05,29,9.30
2012,11,30,05,31,9.30
2012,11,30,05,33,9.30
2012,11,30,05,34,9.20
2012,11,30,05,35,9.20
2012,11,30,05,36,9.20
2012,11,30,05,37,9.20
2012,11,30,05,38,9.20
2012,11,30,05,39,9.20
2012,11,30,05,40,9.10
2012,11,30,05,41,9.10
2012,11,30,05,42,9.10
2012,11,30,05,43,9.10
2012,11,30,05,44,9.10
2012,11,30,05,45,9.10
2012,11,30,05,46,9.10
2012,11,30,05,47,9.10
2012,11,30,05,48,9.10
2012,11,30,05,49,9.10
2012,11,30,05,50,9.10
2012,11,30,05,52,9.00
2012,11,30,05,53,9.10
2012,11,30,05,54,9.10
2012,11,30,05,55,9.10
2012,11,30,05,56,9.10
2012,11,30,05,58,9.10
2012,11,30,05,59,9.10
2012,11,30,06,00,9.10
2012,11,30,06,01,9.10
2012,11,30,06,02,9.10
2012,11,30,06,03,9.10
2012,11,30,06,04,9.10
2012,11,30,06,05,9.10
2012,11,30,06,07,9.10
2012,11,30,06,09,9.10
2012,11,30,06,10,9.10
2012,11,30,06,11,9.10
2012,11,30,06,12,9.10
2012,11,30,06,13,9.10
2012,11,30,06,14,9.10
2012,11,30,06,16,9.00
2012,11,30,06,17,9.10
2012,11,30,06,19,9.10
2012,11,30,06,21,9.10
2012,11,30,06,23,9.10
2012,11,30,06,24,9.10
2012,11,30,06,26,9.10
2012,11,30,06,28,9.10
2012,11,30,06,29,9.10
2012,11,30,06,30,9.10
2012,11,30,06,31,9.20
2012,11,30,06,32,9.20
2012,11,30,06,33,9.20
2012,11,30,06,34,9.20
2012,11,30,06,35,9.20
2012,11,30,06,37,9.20
2012,11,30,06,38,9.20
2012,11,30,06,39,9.20
2012,11,30,06,40,9.30
2012,11,30,06,42,9.30
2012,11,30,06,43,9.30
2012,11,30,06,44,9.30
2012,11,30,06,45,9.30
2012,11,30,06,47,9.30
2012,11,30,06,48,9.30
2012,11,30,06,49,9.30
2012,11,30,06,50,9.30
2012,11,30,06,52,9.30
2012,11,30,06,53,9.30
2012,11,30,06,54,9.30
2012,11,30,06,55,9.30
2012,11,30,06,56,9.30
2012,11,30,06,57,9.30
2012,11,30,06,58,9.30
2012,11,30,06,59,9.30
2012,11,30,07,01,9.30
2012,11,30,07,02,9.30
2012,11,30,07,03,9.40
2012,11,30,07,05,9.40
2012,11,30,07,06,9.40
2012,11,30,07,07,9.40
2012,11,30,07,08,9.40
2012,11,30,07,10,9.40
2012,11,30,07,11,9.50
2012,11,30,07,12,9.50
2012,11,30,07,13,9.50
2012,11,30,07,15,9.50
2012,11,30,07,16,9.60
2012,11,30,07,17,9.50
2012,11,30,07,18,9.60
2012,11,30,07,20,9.60
2012,11,30,07,21,9.60
2012,11,30,07,22,9.60
2012,11,30,07,23,9.50
2012,11,30,07,25,9.50
2012,11,30,07,26,9.50
2012,11,30,07,27,9.50
2012,11,30,07,28,9.50
2012,11,30,07,30,9.40
2012,11,30,07,31,9.40
2012,11,30,07,32,9.40
2012,11,30,07,33,9.40
2012,11,30,07,35,9.40
2012,11,30,07,36,9.40
2012,11,30,07,37,9.40
2012,11,30,07,39,9.30
2012,11,30,07,40,9.30
2012,11,30,07,41,9.30
2012,11,30,07,42,9.30
2012,11,30,07,44,9.30
2012,11,30,07,45,9.30
2012,11,30,07,46,9.30
2012,11,30,07,47,9.30
2012,11,30,07,48,9.30
2012,11,30,07,49,9.20
2012,11,30,07,50,9.20
2012,11,30,07,51,9.20
2012,11,30,07,52,9.20
2012,11,30,07,54,9.20
2012,11,30,07,55,9.10
2012,11,30,07,56,9.10
2012,11,30,07,57,9.10
2012,11,30,07,59,9.10
2012,11,30,08,00,9.10
2012,11,30,08,01,9.10
2012,11,30,08,02,9.10
2012,11,30,08,04,9.10
2012,11,30,08,05,9.10
2012,11,30,08,06,9.10
2012,11,30,08,07,9.10
2012,11,30,08,09,9.10
2012,11,30,08,10,9.10
2012,11,30,08,11,9.10
2012,11,30,08,12,9.10
2012,11,30,08,13,9.10
2012,11,30,08,14,9.10
2012,11,30,08,15,9.10
2012,11,30,08,16,9.10
2012,11,30,08,17,9.10
2012,11,30,08,18,9.10
2012,11,30,08,19,9.10
2012,11,30,08,20,9.00
2012,11,30,08,21,9.10
2012,11,30,08,22,9.10
2012,11,30,08,23,9.10
2012,11,30,08,24,9.10
2012,11,30,08,25,9.10
2012,11,30,08,26,9.10
2012,11,30,08,28,9.10
2012,11,30,08,29,9.10
2012,11,30,08,30,9.10
2012,11,30,08,31,9.10
2012,11,30,08,33,9.10
2012,11,30,08,34,9.10
2012,11,30,08,35,9.10
2012,11,30,08,36,9.10
2012,11,30,08,37,9.10
2012,11,30,08,38,9.10
2012,11,30,08,39,9.00
2012,11,30,08,40,9.00
2012,11,30,08,41,9.00
2012,11,30,08,42,9.00
2012,11,30,08,43,9.00
2012,11,30,08,44,8.90
2012,11,30,08,45,8.90
2012,11,30,08,46,8.90
2012,11,30,08,47,8.90
2012,11,30,08,48,8.90
2012,11,30,08,49,8.90
2012,11,30,08,50,8.90
2012,11,30,08,52,8.90
2012,11,30,08,53,8.90
2012,11,30,08,54,8.90
2012,11,30,08,55,8.90
2012,11,30,08,57,8.90
2012,11,30,08,58,8.90
2012,11,30,08,59,8.90
2012,11,30,09,00,8.90
2012,11,30,09,02,8.90
2012,11,30,09,03,8.90
2012,11,30,09,04,8.90
2012,11,30,09,05,9.00
2012,11,30,09,06,9.00
2012,11,30,09,08,9.00
2012,11,30,09,09,9.00
2012,11,30,09,10,9.10
2012,11,30,09,11,9.10
2012,11,30,09,13,9.10
2012,11,30,09,14,9.10
2012,11,30,09,15,9.10
2012,11,30,09,16,9.10
2012,11,30,09,17,9.10
2012,11,30,09,18,9.10
2012,11,30,09,19,9.20
2012,11,30,09,20,9.20
2012,11,30,09,21,9.20
2012,11,30,09,22,9.20
2012,11,30,09,23,9.20
2012,11,30,09,24,9.20
2012,11,30,09,26,9.20
2012,11,30,09,27,9.20
2012,11,30,09,28,9.20
2012,11,30,09,29,9.30
2012,11,30,09,30,9.30
2012,11,30,09,31,9.30
2012,11,30,09,32,9.30
2012,11,30,09,33,9.30
2012,11,30,09,34,9.30
2012,11,30,09,36,9.30
2012,11,30,09,37,9.30
2012,11,30,09,38,9.40
2012,11,30,09,39,9.40
2012,11,30,09,40,9.40
2012,11,30,09,41,9.40
2012,11,30,09,42,9.40
2012,11,30,09,43,9.40
2012,11,30,09,44,9.40
2012,11,30,09,46,9.40
2012,11,30,09,47,9.40
2012,11,30,09,48,9.40
2012,11,30,09,49,9.40
2012,11,30,09,50,9.40
2012,11,30,09,51,9.40
2012,11,30,09,52,9.40
2012,11,30,09,53,9.40
2012,11,30,09,54,9.40
2012,11,30,09,56,9.40
2012,11,30,09,57,9.40
2012,11,30,09,58,9.40
2012,11,30,09,59,9.40
2012,11,30,10,00,9.40
2012,11,30,10,01,9.40
2012,11,30,10,02,9.40
2012,11,30,10,03,9.40
2012,11,30,10,04,9.40
2012,11,30,10,05,9.40
2012,11,30,10,06,9.30
2012,11,30,10,07,9.30
2012,11,30,10,08,9.30
2012,11,30,10,10,9.30
2012,11,30,10,11,9.30
2012,11,30,10,12,9.30
2012,11,30,10,13,9.30
2012,11,30,10,15,9.30
2012,11,30,10,16,9.30
2012,11,30,10,17,9.30
2012,11,30,10,19,9.30
2012,11,30,10,20,9.30
2012,11,30,10,21,9.20
2012,11,30,10,23,9.20
2012,11,30,10,24,9.20
2012,11,30,10,25,9.20
2012,11,30,10,26,9.20
2012,11,30,10,28,9.20
2012,11,30,10,29,9.20
2012,11,30,10,30,9.30
2012,11,30,10,31,9.30
2012,11,30,10,32,9.20
2012,11,30,10,33,9.20
2012,11,30,10,34,9.30
2012,11,30,10,35,9.30
2012,11,30,10,36,9.30
2012,11,30,10,37,9.30
2012,11,30,10,38,9.30
2012,11,30,10,39,9.30
2012,11,30,10,40,9.30
2012,11,30,10,41,9.30
2012,11,30,10,42,9.30
2012,11,30,10,43,9.30
2012,11,30,10,44,9.30
2012,11,30,10,45,9.30
2012,11,30,10,47,9.30
2012,11,30,10,48,9.30
2012,11,30,10,49,9.30
2012,11,30,10,50,9.30
2012,11,30,10,51,9.30
2012,11,30,10,53,9.30
2012,11,30,10,54,9.30
2012,11,30,10,55,9.30
2012,11,30,10,56,9.30
2012,11,30,10,58,9.40
2012,11,30,10,59,9.40
2012,11,30,11,00,9.40
2012,11,30,11,01,9.40
2012,11,30,11,02,9.40
2012,11,30,11,04,9.40
2012,11,30,11,05,9.40
2012,11,30,11,06,9.40
2012,11,30,11,07,9.40
2012,11,30,11,08,9.40
2012,11,30,11,09,9.40
2012,11,30,11,10,9.40
2012,11,30,11,11,9.40
2012,11,30,11,12,9.50
2012,11,30,11,13,9.50
2012,11,30,11,14,9.50
2012,11,30,11,15,9.50
2012,11,30,11,17,9.50
2012,11,30,11,18,9.50
2012,11,30,11,19,9.60
2012,11,30,11,20,9.60
2012,11,30,11,21,9.60
2012,11,30,11,22,9.60
2012,11,30,11,24,9.60
2012,11,30,11,25,9.60
2012,11,30,11,26,9.60
2012,11,30,11,27,9.60
2012,11,30,11,29,9.60
2012,11,30,11,30,9.70
2012,11,30,11,31,9.70
2012,11,30,11,32,9.70
2012,11,30,11,33,9.70
2012,11,30,11,34,9.70
2012,11,30,11,35,9.70
2012,11,30,11,36,9.80
2012,11,30,11,37,9.80
2012,11,30,11,38,9.80
2012,11,30,11,39,9.80
2012,11,30,11,40,9.80
2012,11,30,11,41,9.80
2012,11,30,11,42,9.90
2012,11,30,11,44,9.90
2012,11,30,11,45,9.90
2012,11,30,11,46,9.90
2012,11,30,11,47,9.90
2012,11,30,11,49,9.90
2012,11,30,11,50,9.90
2012,11,30,11,51,9.90
2012,11,30,11,52,9.90
2012,11,30,11,54,9.90
2012,11,30,11,55,9.90
2012,11,30,11,56,9.90
2012,11,30,11,57,9.90
2012,11,30,11,58,9.90
2012,11,30,11,59,9.90
2012,11,30,12,00,9.90
2012,11,30,12,01,9.90
2012,11,30,12,03,9.90
2012,11,30,12,04,9.90
2012,11,30,12,05,9.90
2012,11,30,12,06,9.80
2012,11,30,12,07,9.80
2012,11,30,12,08,9.80
2012,11,30,12,09,9.80
2012,11,30,12,10,9.80
2012,11,30,12,11,9.80
2012,11,30,12,12,9.80
2012,11,30,12,13,9.80
2012,11,30,12,14,9.90
2012,11,30,12,16,9.90
2012,11,30,12,17,9.90
2012,11,30,12,19,9.90
2012,11,30,12,20,9.90
2012,11,30,12,21,9.90
2012,11,30,12,22,9.90
2012,11,30,12,23,9.90
2012,11,30,12,24,9.90
2012,11,30,12,25,10.00
2012,11,30,12,26,10.00
2012,11,30,12,27,10.10
2012,11,30,12,29,10.10
2012,11,30,12,31,10.10
2012,11,30,12,32,10.10
2012,11,30,12,33,10.00
2012,11,30,12,35,10.00
2012,11,30,12,36,10.00
2012,11,30,12,37,10.00
2012,11,30,12,38,10.00
2012,11,30,12,40,9.90
2012,11,30,12,41,9.90
2012,11,30,12,42,9.90
2012,11,30,12,43,9.80
2012,11,30,12,44,9.80
2012,11,30,12,46,9.80
2012,11,30,12,47,9.80
2012,11,30,12,48,9.80
2012,11,30,12,49,9.90
2012,11,30,12,50,9.80
2012,11,30,12,51,9.80
2012,11,30,12,52,9.80
2012,11,30,12,53,9.80
2012,11,30,12,55,9.80
2012,11,30,12,56,9.70
2012,11,30,12,57,9.70
2012,11,30,12,58,9.70
2012,11,30,13,00,9.70
2012,11,30,13,01,9.70
2012,11,30,13,02,9.70
2012,11,30,13,03,9.60
2012,11,30,13,04,9.60
2012,11,30,13,06,9.60
2012,11,30,13,07,9.60
2012,11,30,13,08,9.60
2012,11,30,13,10,9.60
2012,11,30,13,11,9.60
2012,11,30,13,12,9.50
2012,11,30,13,13,9.50
2012,11,30,13,15,9.50
2012,11,30,13,16,9.50
2012,11,30,13,17,9.60
2012,11,30,13,18,9.60
2012,11,30,13,20,9.60
2012,11,30,13,21,9.50
2012,11,30,13,22,9.60
2012,11,30,13,23,9.60
2012,11,30,13,24,9.60
2012,11,30,13,26,9.70
2012,11,30,13,27,9.70
2012,11,30,13,28,9.80
2012,11,30,13,30,9.80
2012,11,30,13,31,9.80
2012,11,30,13,32,9.80
2012,11,30,13,33,9.80
2012,11,30,13,34,9.80
2012,11,30,13,35,9.80
2012,11,30,13,36,9.80
2012,11,30,13,37,9.80
2012,11,30,13,39,9.80
2012,11,30,13,40,9.80
2012,11,30,13,41,9.80
2012,11,30,13,42,9.80
2012,11,30,13,44,9.80
2012,11,30,13,45,9.70
2012,11,30,13,46,9.70
2012,11,30,13,47,9.70
2012,11,30,13,49,9.70
2012,11,30,13,50,9.70
2012,11,30,13,51,9.70
2012,11,30,13,52,9.70
2012,11,30,13,54,9.70
2012,11,30,13,55,9.70
2012,11,30,13,56,9.70
2012,11,30,13,57,9.70
2012,11,30,13,59,9.70
2012,11,30,14,00,9.70
2012,11,30,14,01,9.70
2012,11,30,14,02,9.70
2012,11,30,14,04,9.70
2012,11,30,14,06,9.70
2012,11,30,14,07,9.80
2012,11,30,14,08,9.80
2012,11,30,14,09,9.80
2012,11,30,14,10,9.80
2012,11,30,14,11,9.80
2012,11,30,14,12,9.80
2012,11,30,14,13,9.80
2012,11,30,14,14,9.80
2012,11,30,14,16,9.80
2012,11,30,14,18,9.70
2012,11,30,14,19,9.70
2012,11,30,14,21,9.70
2012,11,30,14,22,9.70
2012,11,30,14,24,9.70
2012,11,30,14,25,9.70
2012,11,30,14,26,9.70
2012,11,30,14,28,9.60
2012,11,30,14,29,9.60
2012,11,30,14,30,9.60
2012,11,30,14,31,9.60
2012,11,30,14,32,9.60
2012,11,30,14,33,9.60
2012,11,30,14,34,9.60
2012,11,30,14,36,9.60
2012,11,30,14,37,9.60
2012,11,30,14,38,9.60
2012,11,30,14,40,9.60
2012,11,30,14,41,9.60
2012,11,30,14,42,9.60
2012,11,30,14,43,9.60
2012,11,30,14,44,9.60
2012,11,30,14,46,9.60
2012,11,30,14,47,9.60
2012,11,30,14,48,9.60
2012,11,30,14,49,9.60
2012,11,30,14,50,9.60
2012,11,30,14,52,9.60
2012,11,30,14,53,9.60
2012,11,30,14,54,9.60
2012,11,30,14,56,9.50
2012,11,30,14,57,9.50
2012,11,30,14,59,9.50
2012,11,30,15,00,9.50
2012,11,30,15,01,9.50
2012,11,30,15,02,9.50
2012,11,30,15,03,9.50
2012,11,30,15,05,9.50
2012,11,30,15,06,9.50
2012,11,30,15,07,9.50
2012,11,30,15,09,9.50
2012,11,30,15,10,9.50
2012,11,30,15,11,9.50
2012,11,30,15,12,9.50
2012,11,30,15,14,9.50
2012,11,30,15,15,9.60
2012,11,30,15,16,9.60
2012,11,30,15,18,9.60
2012,11,30,15,19,9.60
2012,11,30,15,20,9.60
2012,11,30,15,21,9.60
2012,11,30,15,22,9.60
2012,11,30,15,23,9.60
2012,11,30,15,24,9.50
2012,11,30,15,25,9.50
2012,11,30,15,27,9.50
2012,11,30,15,28,9.50
2012,11,30,15,29,9.50
2012,11,30,15,30,9.50
2012,11,30,15,31,9.50
2012,11,30,15,32,9.40
2012,11,30,15,33,9.40
2012,11,30,15,34,9.40
2012,11,30,15,36,9.40
2012,11,30,15,37,9.40
2012,11,30,15,38,9.40
2012,11,30,15,39,9.30
2012,11,30,15,41,9.30
2012,11,30,15,42,9.30
2012,11,30,15,43,9.30
2012,11,30,15,44,9.30
2012,11,30,15,45,9.30
2012,11,30,15,46,9.30
2012,11,30,15,47,9.30
2012,11,30,15,48,9.30
2012,11,30,15,49,9.30
2012,11,30,15,51,9.30
2012,11,30,15,52,9.20
2012,11,30,15,53,9.30
2012,11,30,15,54,9.20
2012,11,30,15,56,9.20
2012,11,30,15,57,9.20
2012,11,30,15,58,9.20
2012,11,30,15,59,9.20
2012,11,30,16,01,9.20
2012,11,30,16,02,9.20
2012,11,30,16,03,9.20
2012,11,30,16,04,9.20
2012,11,30,16,06,9.20
2012,11,30,16,07,9.20
2012,11,30,16,08,9.20
2012,11,30,16,10,9.20
2012,11,30,16,11,9.20
2012,11,30,16,12,9.20
2012,11,30,16,14,9.20
2012,11,30,16,15,9.20
2012,11,30,16,16,9.20
2012,11,30,16,17,9.20
2012,11,30,16,19,9.20
2012,11,30,16,20,9.20
2012,11,30,16,21,9.20
2012,11,30,16,22,9.20
2012,11,30,16,24,9.20
2012,11,30,16,25,9.20
2012,11,30,16,26,9.20
2012,11,30,16,27,9.20
2012,11,30,16,29,9.20
2012,11,30,16,30,9.20
2012,11,30,16,31,9.20
2012,11,30,16,32,9.20
2012,11,30,16,33,9.20
2012,11,30,16,34,9.20
2012,11,30,16,35,9.20
2012,11,30,16,36,9.20
2012,11,30,16,38,9.20
2012,11,30,16,40,9.20
2012,11,30,16,41,9.20
2012,11,30,16,42,9.20
2012,11,30,16,43,9.20
2012,11,30,16,44,9.20
2012,11,30,16,45,9.20
2012,11,30,16,46,9.20
2012,11,30,16,47,9.20
2012,11,30,16,48,9.20
2012,11,30,16,49,9.20
2012,11,30,16,50,9.20
2012,11,30,16,51,9.20
2012,11,30,16,53,9.20
2012,11,30,16,54,9.20
2012,11,30,16,55,9.20
2012,11,30,16,56,9.20
2012,11,30,16,57,9.20
2012,11,30,16,58,9.20
2012,11,30,16,59,9.20
2012,11,30,17,00,9.20
2012,11,30,17,01,9.20
2012,11,30,17,03,9.20
2012,11,30,17,04,9.20
2012,11,30,17,05,9.20
2012,11,30,17,07,9.30
2012,11,30,17,08,9.30
2012,11,30,17,09,9.30
2012,11,30,17,10,9.30
2012,11,30,17,11,9.30
2012,11,30,17,12,9.30
2012,11,30,17,13,9.30
2012,11,30,17,14,9.30
2012,11,30,17,15,9.30
2012,11,30,17,16,9.30
2012,11,30,17,17,9.30
2012,11,30,17,18,9.20
2012,11,30,17,19,9.30
2012,11,30,17,20,9.30
2012,11,30,17,21,9.20
2012,11,30,17,23,9.20
2012,11,30,17,24,9.20
2012,11,30,17,25,9.20
2012,11,30,17,26,9.20
2012,11,30,17,27,9.20
2012,11,30,17,28,9.20
2012,11,30,17,29,9.20
2012,11,30,17,30,9.20
2012,11,30,17,31,9.20
2012,11,30,17,32,9.20
2012,11,30,17,34,9.30
2012,11,30,17,35,9.30
2012,11,30,17,36,9.30
2012,11,30,17,38,9.30
2012,11,30,17,39,9.20
2012,11,30,17,40,9.20
2012,11,30,17,41,9.20
2012,11,30,17,43,9.20
2012,11,30,17,44,9.20
2012,11,30,17,45,9.20
2012,11,30,17,47,9.20
2012,11,30,17,48,9.20
2012,11,30,17,49,9.20
2012,11,30,17,50,9.20
2012,11,30,17,52,9.20
2012,11,30,17,53,9.20
2012,11,30,17,54,9.20
2012,11,30,17,55,9.20
2012,11,30,17,56,9.20
2012,11,30,17,58,9.20
2012,11,30,17,59,9.20
2012,11,30,18,00,9.20
2012,11,30,18,01,9.20
2012,11,30,18,02,9.20
2012,11,30,18,03,9.20
2012,11,30,18,04,9.20
2012,11,30,18,05,9.20
2012,11,30,18,06,9.20
2012,11,30,18,08,9.20
2012,11,30,18,09,9.20
2012,11,30,18,10,9.20
2012,11,30,18,11,9.20
2012,11,30,18,12,9.20
2012,11,30,18,13,9.20
2012,11,30,18,14,9.20
2012,11,30,18,15,9.20
2012,11,30,18,16,9.20
2012,11,30,18,18,9.20
2012,11,30,18,19,9.20
2012,11,30,18,20,9.20
2012,11,30,18,21,9.20
2012,11,30,18,23,9.20
2012,11,30,18,24,9.20
2012,11,30,18,25,9.20
2012,11,30,18,27,9.20
2012,11,30,18,28,9.20
2012,11,30,18,29,9.20
2012,11,30,18,30,9.20
2012,11,30,18,31,9.20
2012,11,30,18,32,9.20
2012,11,30,18,33,9.10
2012,11,30,18,34,9.10
2012,11,30,18,36,9.10
2012,11,30,18,37,9.10
2012,11,30,18,38,9.10
2012,11,30,18,39,9.10
2012,11,30,18,41,9.10
2012,11,30,18,42,9.10
2012,11,30,18,43,9.10
2012,11,30,18,44,9.10
2012,11,30,18,46,9.10
2012,11,30,18,47,9.00
2012,11,30,18,48,9.00
2012,11,30,18,49,9.00
2012,11,30,18,50,9.00
2012,11,30,18,52,9.00
2012,11,30,18,53,9.00
2012,11,30,18,54,9.00
2012,11,30,18,55,9.00
2012,11,30,18,57,9.00
2012,11,30,18,58,8.90
2012,11,30,18,59,9.00
2012,11,30,19,00,9.00
2012,11,30,19,02,8.90
2012,11,30,19,03,8.90
2012,11,30,19,04,8.90
2012,11,30,19,05,8.90
2012,11,30,19,07,8.90
2012,11,30,19,08,8.90
2012,11,30,19,09,8.90
2012,11,30,19,10,8.90
2012,11,30,19,12,8.90
2012,11,30,19,13,8.80
2012,11,30,19,14,8.80
2012,11,30,19,16,8.80
2012,11,30,19,17,8.80
2012,11,30,19,18,8.80
2012,11,30,19,19,8.80
2012,11,30,19,21,8.80
2012,11,30,19,22,8.80
2012,11,30,19,23,8.80
2012,11,30,19,24,8.80
2012,11,30,19,25,8.80
2012,11,30,19,26,8.80
2012,11,30,19,27,8.80
2012,11,30,19,28,8.80
2012,11,30,19,29,8.80
2012,11,30,19,31,8.70
2012,11,30,19,32,8.70
2012,11,30,19,33,8.70
2012,11,30,19,34,8.70
2012,11,30,19,35,8.70
2012,11,30,19,37,8.70
2012,11,30,19,38,8.70
2012,11,30,19,39,8.70
2012,11,30,19,40,8.60
2012,11,30,19,41,8.60
2012,11,30,19,42,8.60
2012,11,30,19,43,8.60
2012,11,30,19,44,8.60
2012,11,30,19,46,8.60
2012,11,30,19,47,8.60
2012,11,30,19,48,8.50
2012,11,30,19,49,8.50
2012,11,30,19,51,8.50
2012,11,30,19,52,8.50
2012,11,30,19,53,8.50
2012,11,30,19,54,8.50
2012,11,30,19,55,8.50
2012,11,30,19,56,8.50
2012,11,30,19,57,8.40
2012,11,30,19,58,8.40
2012,11,30,19,59,8.40
2012,11,30,20,00,8.40
2012,11,30,20,02,8.40
2012,11,30,20,03,8.40
2012,11,30,20,04,8.40
2012,11,30,20,05,8.40
2012,11,30,20,06,8.30
2012,11,30,20,07,8.30
2012,11,30,20,08,8.30
2012,11,30,20,09,8.30
2012,11,30,20,10,8.30
2012,11,30,20,11,8.30
2012,11,30,20,12,8.30
2012,11,30,20,13,8.30
2012,11,30,20,14,8.40
2012,11,30,20,15,8.40
2012,11,30,20,17,8.40
2012,11,30,20,18,8.40
2012,11,30,20,19,8.40
2012,11,30,20,20,8.40
2012,11,30,20,21,8.40
2012,11,30,20,22,8.40
2012,11,30,20,23,8.40
2012,11,30,20,24,8.40
2012,11,30,20,26,8.40
2012,11,30,20,27,8.40
2012,11,30,20,28,8.40
2012,11,30,20,30,8.40
2012,11,30,20,31,8.40
2012,11,30,20,32,8.40
2012,11,30,20,33,8.40
2012,11,30,20,34,8.40
2012,11,30,20,35,8.40
2012,11,30,20,36,8.40
2012,11,30,20,37,8.40
2012,11,30,20,38,8.40
2012,11,30,20,40,8.40
2012,11,30,20,41,8.30
2012,11,30,20,42,8.30
2012,11,30,20,44,8.30
2012,11,30,20,45,8.30
2012,11,30,20,46,8.30
2012,11,30,20,47,8.30
2012,11,30,20,49,8.30
2012,11,30,20,50,8.30
2012,11,30,20,51,8.30
2012,11,30,20,52,8.30
2012,11,30,20,53,8.30
2012,11,30,20,54,8.30
2012,11,30,20,55,8.30
2012,11,30,20,56,8.30
2012,11,30,20,57,8.30
2012,11,30,20,58,8.30
2012,11,30,20,59,8.20
2012,11,30,21,00,8.20
2012,11,30,21,01,8.20
2012,11,30,21,02,8.20
2012,11,30,21,03,8.20
2012,11,30,21,04,8.20
2012,11,30,21,05,8.20
2012,11,30,21,06,8.20
2012,11,30,21,07,8.20
2012,11,30,21,08,8.20
2012,11,30,21,09,8.20
2012,11,30,21,10,8.20
2012,11,30,21,11,8.20
2012,11,30,21,12,8.10
2012,11,30,21,13,8.10
2012,11,30,21,14,8.10
2012,11,30,21,15,8.10
2012,11,30,21,16,8.10
2012,11,30,21,17,8.10
2012,11,30,21,18,8.10
2012,11,30,21,20,8.20
2012,11,30,21,21,8.20
2012,11,30,21,22,8.20
2012,11,30,21,23,8.20
2012,11,30,21,24,8.20
2012,11,30,21,25,8.20
2012,11,30,21,26,8.20
2012,11,30,21,27,8.20
2012,11,30,21,28,8.20